Content
SEND FEEDBACK

Daily
Averages
Monthly
Summary
United Kingdom

SHERBURN IN ELMET, ENGLAND


Home > Europe > United Kingdom > England
Elevation: 65 feet     Latitude: 53 57N     Longitude: 001 11W

WEATHER
 
SELECT A DAY
Number of Records: 48,838;   Date Range: 6/27/01 - 12/19/13
 
SHARE

PRINT THIS DATA

[ ← Previous Day ]
WEATHER ALMANAC - OCTOBER 29, 2013
[ Next Day → ]
[ °C ]   °F
Weather ElementAverageHighLow
Temperature48.5 °F52 °F (3:00 pm)44.6 °F (9:50 pm)
Dewpoint40.2 °F42.8 °F (12:50 am)37.4 °F (10:50 am)
Humidity72.2 %87 % (12:50 am)47 % (3:00 pm)
Barometer29.71 in29.92 in (10:50 pm)29.42 in (12:50 am)
Wind Speed12.1 mph20.7 mph (12:50 pm)
Weather ElementAverage
Visibility9.4 mi
Wind DirectionWSW (250 °)

Weather ElementTotal
Precipitation---
Heating Degree Days16.7 (Base 65)
Averaged from 28 records on October 29, 2013
WEATHER CONDITIONS BREAKOUT
WIND DIRECTION BREAKOUT
WEATHER BY HOUR - OCTOBER 29, 2013
[ °C ]   °F
Local TimeTemperatureDewpointHumidityBarometerVisibilityWind DirectionWind SpeedGust SpeedPrecipitationEventsConditions
12:50 AM46.4 °F42.8 °F87 %29.42 in6.2 miSW (230°)15.0 mphPartly Cloudy
1:50 AM48.2 °F42.8 °F82 %29.44 in6.2 miWSW (250°)12.7 mphMostly Cloudy
2:50 AM46.4 °F42.8 °F87 %29.47 in6.2 miSW (220°)8.1 mphPartly Cloudy
3:50 AM48.2 °F42.8 °F82 %29.50 in6.2 miWest (260°)11.5 mph
4:50 AM48.2 °F42.8 °F82 %29.53 in6.2 miWest (260°)10.4 mphScattered Clouds
5:50 AM48.2 °F42.8 °F82 %29.56 in6.2 miWSW (250°)9.2 mphMostly Cloudy
6:00 AM48.0 °F42.0 °F72 %29.57 in25.0 miWSW (250°)9.2 mph
6:50 AM46.4 °F41.0 °F81 %29.59 in6.2 miWSW (250°)12.7 mphPartly Cloudy
7:50 AM46.4 °F41.0 °F81 %29.62 in6.2 miWest (270°)11.5 mphScattered Clouds
8:50 AM48.2 °F39.2 °F71 %29.65 in6.2 miWest (260°)10.4 mphScattered Clouds
9:50 AM50.0 °F41.0 °F71 %29.68 in6.2 miWest (260°)13.8 mphPartly Cloudy
10:50 AM51.8 °F37.4 °F58 %29.71 in6.2 miWest (260°)16.1 mphPartly Cloudy
11:50 AM51.8 °F39.2 °F62 %29.71 in6.2 miWSW (240°)19.6 mphScattered Clouds
12:00 PM51.0 °F39.0 °F52 %29.73 in34.0 miWSW (240°)19.6 mphPartly Cloudy
12:50 PM50.0 °F41.0 °F71 %29.71 in6.2 miWSW (240°)20.7 mphMostly Cloudy
1:50 PM51.8 °F39.2 °F62 %29.74 in6.2 miWest (280°)15.0 mphScattered Clouds
2:50 PM51.8 °F37.4 °F58 %29.74 in6.2 miWest (270°)17.3 mphPartly Cloudy
3:00 PM52.0 °F38.0 °F47 %29.77 in31.0 miWest (270°)17.3 mphScattered Clouds
3:50 PM51.8 °F37.4 °F58 %29.77 in6.2 miWest (270°)13.8 mphPartly Cloudy
4:50 PM50.0 °F39.2 °F66 %29.80 in6.2 miWest (260°)12.7 mphPartly Cloudy
5:50 PM48.2 °F39.2 °F71 %29.83 in6.2 miWest (260°)8.1 mph
6:50 PM48.2 °F39.2 °F71 %29.83 in6.2 miWSW (250°)8.1 mph
7:50 PM46.4 °F39.2 °F76 %29.86 in6.2 miWest (260°)10.4 mphPartly Cloudy
8:50 PM46.4 °F39.2 °F76 %29.89 in6.2 miWSW (240°)5.8 mphPartly Cloudy
9:00 PM47.0 °F39.0 °F67 %29.89 in25.0 miWSW (240°)5.8 mphScattered Clouds
9:50 PM44.6 °F39.2 °F81 %29.89 in6.2 miSSW (200°)6.9 mph
10:50 PM46.4 °F41.0 °F81 %29.92 in6.2 miSW (230°)10.4 mphPartly Cloudy
11:50 PM44.6 °F41.0 °F87 %29.92 in6.2 miSW (230°)5.8 mph
Hourly data recorded from EGXG, located miles away from Sherburn in Elmet, England







STORIES FROM OUR PARTNERS